LA4GY-1 Weather Reports


Display with metric or nautical units.
time (UTC)temp
F
wind
direction
speed
MPH
gust
MPH
rain 1hr
in
rain 24hr
in
rain mn
in
humidity
%
barometer
mb
20260902135202 59 157 0.0 0.0 0.00 0.00 0.00 69 1002.2
20260902134202 60 157 0.0 0.0 0.00 0.00 0.00 73 1002.2
20260902133202 60 157 0.0 0.0 0.00 0.00 0.00 73 1002.3
20260902132202 60 157 0.0 0.0 0.00 0.00 0.00 69 1002.3
20260902131201 60 157 0.0 0.0 0.00 0.00 0.00 70 1002.4
20260902130201 60 157 0.0 0.0 0.00 0.00 0.00 69 1002.4
20260902125201 60 157 0.0 0.0 0.00 0.00 0.00 70 1002.4
20260902124201 61 157 0.0 0.0 0.00 0.00 0.00 70 1002.4
20260902123201 61 157 0.0 0.0 0.00 0.00 0.00 69 1002.4
20260902122201 61 157 0.0 0.0 0.00 0.00 0.00 69 1002.4
20260902121201 61 157 0.0 0.0 0.00 0.00 0.00 69 1002.5
20260902120201 61 157 0.0 0.0 0.00 0.00 0.00 69 1002.6
20260902115201 61 157 0.0 0.0 0.00 0.00 0.00 70 1002.7
20260902114201 60 133 0.0 0.0 0.00 0.00 0.00 72 1002.7
20260902113201 60 110 0.0 0.0 0.00 0.00 0.00 70 1002.7
20260902112201 60 113 0.0 0.0 0.00 0.00 0.00 70 1002.8
20260902111201 60 154 0.0 0.0 0.00 0.00 0.00 72 1002.8
20260902110200 59 154 0.0 0.0 0.00 0.00 0.00 72 1002.9
20260902105201 58 150 0.0 0.0 0.00 0.00 0.00 75 1003.0
20260902104200 57 150 0.0 0.0 0.00 0.00 0.00 75 1003.1
20260902103200 57 150 0.0 0.0 0.00 0.00 0.00 76 1003.1
20260902102200 56 150 0.0 0.0 0.00 0.00 0.00 77 1003.2
20260902101200 55 148 0.0 0.0 0.00 0.00 0.00 78 1003.3
20260902100200 55 148 0.0 0.0 0.00 0.00 0.00 80 1003.4
20260902095200 54 148 0.0 0.0 0.00 0.00 0.00 80 1003.4
20260902094200 54 148 0.0 0.0 0.00 0.00 0.00 82 1003.5
20260902093200 54 148 0.0 0.0 0.00 0.00 0.00 82 1003.6
20260902092200 53 122 0.0 0.0 0.00 0.00 0.00 84 1003.6
20260902091200 53 117 0.0 0.0 0.00 0.00 0.00 83 1003.6
20260902090200 53 105 0.0 0.0 0.00 0.00 0.00 82 1003.6
20260902085200 53 106 0.0 0.0 0.00 0.00 0.00 83 1003.5
20260902084159 52 131 0.0 0.0 0.00 0.00 0.00 84 1003.7
20260902083159 52 119 0.0 0.0 0.00 0.00 0.00 85 1003.6
20260902082159 52 120 0.0 0.0 0.00 0.00 0.00 85 1003.7
20260902081159 52 109 0.0 0.0 0.00 0.00 0.00 84 1003.8
20260902080129 52 109 0.0 0.0 0.00 0.00 0.00 86 1003.8
20260902075129 51 110 0.0 0.0 0.00 0.00 0.00 85 1003.7
20260902074059 51 103 0.0 0.0 0.00 0.00 0.00 86 1003.6
20260902073059 51 351 0.0 0.0 0.00 0.00 0.00 86 1003.8
20260902072059 50 62 0.0 0.0 0.00 0.00 0.00 86 1003.8
20260902071059 50 50 0.0 0.0 0.00 0.00 0.00 87 1003.7
20260902070059 50 304 0.0 0.0 0.00 0.00 0.00 88 1003.8
20260902065059 49 96 0.0 0.0 0.00 0.00 0.00 89 1003.9
20260902064059 49 89 0.0 0.0 0.00 0.00 0.00 89 1003.8
20260902063059 48 80 0.0 0.0 0.00 0.00 0.00 89 1004.0
20260902062059 48 86 0.0 0.0 0.00 0.00 0.00 89 1004.0
20260902061058 48 42 0.0 0.0 0.00 0.00 0.00 90 1004.0
20260902060058 48 13 0.0 0.0 0.00 0.00 0.00 91 1004.0
20260902055058 47 63 0.0 0.0 0.00 0.00 0.00 91 1004.2
20260902054058 47 14 0.0 0.0 0.00 0.00 0.00 92 1004.2
20260902053058 47 33 0.0 0.0 0.00 0.00 0.00 92 1004.2
20260902052058 46 328 0.0 0.0 0.00 0.00 0.00 92 1004.4
20260902051058 46 322 0.0 0.0 0.00 0.00 0.00 93 1004.5
20260902050058 46 319 0.0 0.0 0.00 0.00 0.00 93 1004.4
20260902045058 45 323 0.0 0.0 0.00 0.00 0.00 93 1004.5
20260902044058 45 300 0.0 0.0 0.00 0.00 0.00 93 1004.5
20260902043058 44 299 0.0 0.0 0.00 0.00 0.00 93 1004.6
20260902042028 44 295 0.0 0.0 0.00 0.00 0.00 93 1004.7
20260902041028 44 332 0.0 0.0 0.00 0.00 0.00 93 1004.7
20260902040028 44 313 0.0 0.0 0.00 0.00 0.00 92 1004.7
20260902035028 44 325 0.0 0.0 0.00 0.00 0.00 92 1004.8
20260902033958 44 321 0.0 0.0 0.00 0.01 0.00 92 1005.0
20260902032957 44 322 0.0 0.0 0.00 0.01 0.00 92 1005.0
20260902031957 44 326 0.0 0.0 0.00 0.01 0.00 93 1005.0
20260902030957 44 335 0.0 0.0 0.00 0.01 0.00 93 1005.1
20260902025957 44 335 0.0 0.0 0.00 0.01 0.00 92 1005.2
20260902024957 44 321 0.0 0.0 0.00 0.01 0.00 92 1005.4
20260902023957 45 317 0.0 0.0 0.00 0.01 0.00 92 1005.4
20260902022957 45 332 0.0 0.0 0.00 0.02 0.00 92 1005.5
20260902021957 45 344 0.0 0.0 0.00 0.02 0.00 92 1005.5
20260902020957 45 304 0.0 0.0 0.00 0.02 0.00 91 1005.5
20260902015957 45 331 0.0 0.0 0.00 0.03 0.00 91 1005.7
20260902014957 46 326 0.0 0.0 0.00 0.04 0.00 91 1005.7
20260902013957 46 326 0.0 0.0 0.00 0.05 0.00 91 1005.7
20260902012957 46 337 0.0 0.0 0.00 0.06 0.00 91 1005.8
20260902011957 46 317 0.0 0.0 0.00 0.06 0.00 92 1006.0
20260902010957 46 337 0.0 0.0 0.00 0.06 0.00 92 1005.9
20260902005957 46 336 0.0 0.0 0.00 0.06 0.00 92 1006.0
20260902004957 46 336 0.0 0.0 0.00 0.06 0.00 92 1006.0
20260902003957 46 341 0.0 0.0 0.00 0.07 0.00 92 1006.0
20260902002956 46 320 0.0 0.0 0.00 0.07 0.00 91 1006.0
20260902001956 47 320 0.0 0.0 0.00 0.08 0.00 91 1006.1
20260902000956 47 320 0.0 0.0 0.00 0.08 0.00 91 1006.1
20260901235956 47 319 0.0 0.0 0.00 0.09 0.00 91 1006.2
20260901234956 47 319 0.0 0.0 0.00 0.09 0.00 91 1006.2
20260901233956 47 328 0.0 0.0 0.00 0.10 0.00 91 1006.3
20260901232956 47 331 0.0 0.0 0.00 0.11 0.00 91 1006.3
20260901231956 47 335 0.0 0.0 0.00 0.12 0.00 90 1006.4
20260901230956 47 335 0.0 0.0 0.00 0.13 0.00 90 1006.3
20260901225956 47 335 0.0 0.0 0.00 0.13 0.00 90 1006.5
20260901224956 48 334 0.0 0.0 0.00 0.13 0.00 90 1006.5
20260901223956 48 334 0.0 0.0 0.00 0.14 0.00 90 1006.4
20260901222956 48 334 0.0 0.0 0.00 0.15 0.00 90 1006.4
20260901221955 48 334 0.0 0.0 0.00 0.16 0.00 90 1006.5
20260901220955 48 334 0.0 0.0 0.00 0.17 0.00 90 1006.6
20260901215955 48 334 0.0 0.0 0.00 0.18 0.18 90 1006.6
20260901214925 48 334 0.0 0.0 0.00 0.18 0.18 90 1006.7
20260901213925 48 334 0.0 0.0 0.00 0.19 0.18 89 1006.7
20260901212925 48 334 0.0 0.0 0.00 0.19 0.18 90 1006.8
20260901211925 48 334 0.0 0.0 0.00 0.19 0.18 89 1006.9
20260901210925 49 334 0.0 0.0 0.00 0.19 0.18 89 1006.9
20260901205925 49 330 0.0 0.0 0.00 0.19 0.18 88 1007.0
20260901204925 49 331 0.0 0.0 0.00 0.20 0.18 89 1007.0
20260901203855 49 331 0.0 0.0 0.00 0.20 0.18 88 1007.0
20260901202855 49 331 0.0 0.0 0.00 0.21 0.18 88 1007.0
20260901201855 50 331 0.0 0.0 0.00 0.22 0.18 88 1007.1
20260901200855 50 331 0.0 0.0 0.00 0.22 0.18 88 1007.1
20260901195855 50 325 0.0 0.0 0.00 0.23 0.18 87 1007.2
20260901194825 50 337 0.0 0.0 0.00 0.23 0.18 86 1007.2
20260901193826 51 259 0.0 0.0 0.00 0.23 0.18 86 1007.2
20260901192755 51 246 0.0 0.0 0.00 0.23 0.18 87 1007.1
20260901191755 51 246 0.0 0.0 0.00 0.23 0.18 86 1007.1
20260901190755 51 246 0.0 0.0 0.00 0.23 0.18 86 1007.1
20260901185755 51 246 0.0 0.0 0.00 0.23 0.18 85 1007.0
20260901184754 52 246 0.0 0.0 0.00 0.23 0.18 85 1007.1
20260901183754 52 246 0.0 0.0 0.00 0.23 0.18 84 1007.1
20260901182754 53 246 0.0 0.0 0.00 0.23 0.18 84 1007.0
20260901181754 53 246 0.0 0.0 0.00 0.23 0.18 84 1007.1
20260901180754 53 207 0.0 0.0 0.00 0.23 0.18 85 1007.1
20260901175754 53 355 0.0 0.0 0.00 0.23 0.18 84 1007.1
20260901174754 53 337 0.0 0.0 0.00 0.23 0.18 83 1007.1
20260901173754 54 159 0.0 0.0 0.00 0.23 0.18 83 1007.1
20260901172754 54 123 0.0 0.0 0.00 0.23 0.18 82 1007.0
20260901171754 54 73 0.0 0.0 0.00 0.23 0.18 82 1007.0
20260901170754 55 88 0.0 0.0 0.00 0.23 0.18 82 1006.9
20260901165754 55 124 0.0 0.0 0.00 0.23 0.18 82 1006.9
20260901164754 55 167 0.0 0.0 0.00 0.23 0.18 81 1007.0
20260901163753 56 115 0.0 0.0 0.00 0.23 0.18 79 1006.9
20260901162753 56 101 0.0 0.0 0.00 0.23 0.18 80 1006.8
20260901161753 57 149 0.0 0.0 0.00 0.23 0.18 79 1006.7
20260901160753 58 166 0.0 0.0 0.00 0.23 0.18 76 1006.7
20260901155753 58 117 0.0 0.0 0.00 0.23 0.18 75 1006.5
20260901154753 58 242 0.0 0.0 0.00 0.23 0.18 74 1006.6
20260901153753 59 252 0.0 0.0 0.00 0.23 0.18 74 1006.7
20260901152753 59 304 0.0 0.0 0.00 0.23 0.18 74 1006.7
20260901151723 59 205 0.0 0.0 0.00 0.23 0.18 74 1006.6
20260901150723 59 202 0.0 0.0 0.00 0.23 0.18 72 1006.7
20260901145723 59 230 0.0 0.0 0.00 0.23 0.18 71 1006.7
20260901144653 60 220 0.0 0.0 0.00 0.23 0.18 70 1006.6
20260901143623 60 183 0.0 0.0 0.00 0.23 0.18 71 1006.6
20260901142623 60 216 0.0 0.0 0.00 0.23 0.18 70 1006.7
20260901141623 61 237 0.0 0.0 0.00 0.23 0.18 70 1006.6
20260901140553 61 186 0.0 0.0 0.00 0.23 0.18 72 1006.5